This is the latest recevied weather packets stored in our database for station/object IR3AS. If no packets are shown the sender has not sent any weather packets the latest 10 day(s).
| Time | Temp. | Humidity | Pressure | Rain* | Wind** | Luminosity | Snow |
|---|---|---|---|---|---|---|---|
| 1787400663 | 15.56° C | 66% | 863.1 hPa | 0 mm | - | - | - |
| 1787400613 | 15.56° C | 66% | 863.1 hPa | 0 mm | - | - | - |
| 1787400313 | 15° C | 65% | 862.6 hPa | 0 mm | - | - | - |
| 1787400013 | 15.56° C | 65% | 862.6 hPa | 0 mm | - | - | - |
| 1787399713 | 15.56° C | 66% | 863 hPa | 0 mm | - | - | - |
| 1787399413 | 15.56° C | 67% | 863.1 hPa | 0 mm | - | - | - |
| 1787399113 | 15° C | 67% | 862.8 hPa | 0 mm | - | - | - |
| 1787398813 | 15° C | 66% | 863.2 hPa | 0 mm | - | - | - |
| 1787398513 | 15° C | 66% | 862.3 hPa | 0 mm | - | - | - |
| 1787398213 | 15° C | 65% | 862.4 hPa | 0 mm | - | - | - |
| 1787397913 | 15° C | 64% | 862.8 hPa | 0 mm | - | - | - |
| 1787397613 | 15.56° C | 62% | 862.7 hPa | 0 mm | - | - | - |
| 1787397313 | 16.11° C | 62% | 862.7 hPa | 0 mm | - | - | - |
| 1787397013 | 16.67° C | 61% | 862.9 hPa | 0 mm | - | - | - |
| 1787396713 | 17.78° C | 59% | 863 hPa | 0 mm | - | - | - |
| 1787396413 | 17.78° C | 60% | 863 hPa | 0 mm | - | - | - |
| 1787396113 | 16.67° C | 63% | 862.4 hPa | 0 mm | - | - | - |
| 1787395813 | 15.56° C | 66% | 863.3 hPa | 0 mm | - | - | - |
| 1787395513 | 15° C | 67% | 862.7 hPa | 0 mm | - | - | - |
| 1787395213 | 14.44° C | 66% | 862.9 hPa | 0 mm | - | - | - |
| 1787394949 | 14.44° C | 67% | 862.6 hPa | 0 mm | - | - | - |
| 1787394913 | 14.44° C | 67% | 862.6 hPa | 0 mm | - | - | - |
| 1787394662 | 14.44° C | 68% | 862.9 hPa | 0 mm | - | - | - |
| 1787394613 | 14.44° C | 68% | 862.9 hPa | 0 mm | - | - | - |
| 1787394313 | 14.44° C | 69% | 862.7 hPa | 0 mm | - | - | - |
* Rain latest hour (hover to see other rain measurements)
** Current wind speed in m/s (hover to see current wind gust speed)